sat.trackr.live / text

‹ back to catalog

STARLINK-38077

NORAD 69983 · 2026-159J

PAYLOAD ACTIVE UNKNOWN

§ Identity

Operator
Country
US
Launch date
2026-07-11
Launch site
AFWTR
Launch vehicle
Mass (kg)
RCS (m²)

Purposes: comms

External: N2YO · Heavens-Above · Gunter

§ Orbital elements

Epoch: 2026-09-20T04:00:03.000096Z

Period
93.57 min
Inclination
97.2855°
Eccentricity
0.0001486
Mean motion
15.38927480 rev/d
Perigee alt
448.3 km
Apogee alt
450.3 km
Semi-major
6,827.4 km
B*
-8.1946e-2
RAAN
105.1124°
Arg perigee
77.5840°
Mean anomaly
271.8516°
Rev number
594

§ Raw data

STARLINK-380771 69983U 26159J   26263.16670139 -.02804555  00000+0 -81946-1 0  99992 69983  97.2855 105.1124 0001486  77.5840 271.8516 15.38927480  5942

JSON: /api/v1/satellites/69983 · /tle

For live sub-satellite position, see the globe view (requires WebGL).

§ Visibility from observer

Set your observer location to see the next 7 days of passes ≥ 10°. The values pass through the URL so the page stays shareable.

No JS? Fill the form by hand. The geolocation button needs JavaScript.